星链-36257(STARLINK-36257)

导读

STARLINK-36257是美国太空探索技术公司(SpaceX)星链星座计划中的一颗卫星,于2026年2月21日发射升空。星链系统旨在构建全球卫星互联网,为全球偏远地区、海洋、空中等场景提供高速宽带网络服务,STARLINK-36257入轨后将扩展星链星座覆盖范围,提升星座服务能力。

Basic Information
目录编号:
67903
目录名称:
STARLINK-36257
国际标识:
2026-035AA
轨道中心:
EARTH
卫星名称:
星链-36257
卫星全名:
星链-36257(STARLINK-36257)
卫星状态:
在轨 (已飞行195 天)
发射日期:
2026-02-21 UTC
国别 :
美国 (US)
星等 :
--
Orbit Information
数据来源 国际轨道数据
星历时间: 2026-09-03T10:17:49+0800
1天前
查看轨道信息
半长轴: 6843.629km
偏心率: 0.000204
轨道倾角: 97.284°
近地点辐角 100.223°
升交点赤经 178.159°
平近点角 259.925°
近地点: 464.095km
远地点: 466.889km
周期: 93.905分钟
每日圈数: 15.334625
Detailed Information
固有亮度:
5
最大亮度:
2.5
卫星平台:
Starlink V1.0
覆盖范围:
全球
运营商:
太空探索技术公司
运营商所在国:
美国
制造商(研发单位):
太空探索技术公司
制造商所在国:
美国
使用方式:
暂无
Satellite Introduction
Starlink 计划是 SpaceX 推出的全球卫星互联网项目,通过发射低轨道卫星,为全球尤其是偏远地区提供高速、低延迟的互联网服务。自 2019 年起,Starlink 已部署数千颗卫星,旨在缩小全球数字鸿沟,推动互联网普及。该项目还为军事、航空等行业提供通信支持,带来广泛经济效益。
2D Orbit Map
3D Orbit Map
Orbit Altitude Analysis Chart
Orbit Inclination Analysis Chart
Orbit Comprehensive Analysis Chart
View Comprehensive Chart
Conjunction Data List
Event ID Objects TCA Miss Dist (km) Collision Risk Probability Collision Risk Index (CRI) Action
CDM_260905-065806-635806-790321
2026-09-05T
06:58:07+0000
2.142 km
极远距离
1.796875E-6 低风险 0.4
CDM_260903-162604-605506-790323
2026-09-03T
16:26:24+0000
2.939 km
极远距离
1.370378E-6 低风险 0.38
CDM_260905-082306-626206-790321
2026-09-05T
08:23:04+0000
2.664 km
极远距离
9.315324E-7 极低风险 0.34